When you browse on this site, cookies collect data to enhance your experience and personalize the content and advertising you see.
Visit our Privacy Policy to learn more. By continuing to use the site, you agree to this use of cookies and data.
  • In France
  • List of Countries
  • For 7 days
  • Water Temperature
  • Satellite Maps
  • Weather Map
  • Weather Widgets
  • user-avatar
    Login

    Hourly Weather Bor

    Today, 19 June, Wednesday

    Time Temperature Precipitation Wind Pressure Humidity
    00:00 +25°C° 0 mm 1 mps 723 mmHg 89%
    01:00 +25°C° 0 mm 1 mps 723 mmHg 90%
    02:00 +22°C° 0 mm 0 mps 722 mmHg 91%
    03:00 +22°C° 0.3 mm 0 mps 722 mmHg 91%
    04:00 +22°C° 0.3 mm 0 mps 722 mmHg 91%
    05:00 +22°C° 0.3 mm 0 mps 722 mmHg 92%
    06:00 +23°C° 0 mm 0 mps 723 mmHg 88%
    07:00 +24°C° 0 mm 0 mps 723 mmHg 85%
    08:00 +25°C° 0 mm 0 mps 724 mmHg 82%
    09:00 +27°C° 0.1 mm 0 mps 724 mmHg 75%
    10:00 +29°C° 0.1 mm 0 mps 724 mmHg 69%
    11:00 +31°C° 0.1 mm 0 mps 724 mmHg 62%
    12:00 +31°C° 0.2 mm 0 mps 723 mmHg 59%
    13:00 +32°C° 0.2 mm 0 mps 722 mmHg 55%
    14:00 +33°C° 0.2 mm 0 mps 722 mmHg 52%
    15:00 +31°C° 0.2 mm 0 mps 721 mmHg 58%
    16:00 +32°C° 0.2 mm 1 mps 721 mmHg 63%
    17:00 +31°C° 0.2 mm 1 mps 721 mmHg 69%
    18:00 +30°C° 0.3 mm 1 mps 721 mmHg 74%
    19:00 +28°C° 0.3 mm 1 mps 721 mmHg 79%
    20:00 +27°C° 0.3 mm 1 mps 722 mmHg 84%
    21:00 +26°C° 0.1 mm 1 mps 722 mmHg 84%
    22:00 +26°C° 0.1 mm 1 mps 722 mmHg 85%
    23:00 +25°C° 0.1 mm 1 mps 722 mmHg 86%

    Tomorrow, 20 June, Thursday

    Time Temperature Precipitation Wind Pressure Humidity
    00:00 +25°C° 0 mm 1 mps 722 mmHg 86%
    01:00 +25°C° 0 mm 1 mps 722 mmHg 86%
    02:00 +25°C° 0 mm 1 mps 721 mmHg 86%
    03:00 +24°C° 0.4 mm 1 mps 721 mmHg 87%
    04:00 +24°C° 0.4 mm 1 mps 721 mmHg 89%
    05:00 +22°C° 0.4 mm 0 mps 722 mmHg 90%
    06:00 +23°C° 0.2 mm 0 mps 722 mmHg 88%
    07:00 +24°C° 0.2 mm 0 mps 723 mmHg 87%
    08:00 +24°C° 0.2 mm 0 mps 724 mmHg 85%
    09:00 +27°C° 0.7 mm 1 mps 724 mmHg 84%
    10:00 +28°C° 0.7 mm 1 mps 724 mmHg 82%
    11:00 +28°C° 0.7 mm 2 mps 724 mmHg 81%
    12:00 +27°C° 1.3 mm 3 mps 723 mmHg 85%
    13:00 +26°C° 1.3 mm 3 mps 722 mmHg 88%
    14:00 +26°C° 1.3 mm 3 mps 722 mmHg 91%
    15:00 +25°C° 0.1 mm 3 mps 721 mmHg 91%
    16:00 +25°C° 0.1 mm 2 mps 721 mmHg 90%
    17:00 +25°C° 0.1 mm 2 mps 721 mmHg 90%
    18:00 +25°C° 0 mm 2 mps 721 mmHg 90%
    19:00 +25°C° 0 mm 1 mps 722 mmHg 89%
    20:00 +24°C° 0 mm 1 mps 722 mmHg 89%
    21:00 +24°C° 0 mm 1 mps 722 mmHg 90%
    22:00 +24°C° 0 mm 1 mps 722 mmHg 91%
    23:00 +23°C° 0 mm 1 mps 722 mmHg 93%

    Day after tomorrow, 21 June, Friday

    Time Temperature Precipitation Wind Pressure Humidity
    00:00 +23°C° 0 mm 1 mps 722 mmHg 92%
    01:00 +21°C° 0 mm 0 mps 722 mmHg 92%
    02:00 +21°C° 0 mm 0 mps 721 mmHg 92%
    03:00 +21°C° 0 mm 0 mps 721 mmHg 93%
    04:00 +21°C° 0 mm 0 mps 721 mmHg 93%
    05:00 +21°C° 0 mm 0 mps 722 mmHg 94%
    06:00 +24°C° 0 mm 1 mps 722 mmHg 89%
    07:00 +25°C° 0 mm 1 mps 723 mmHg 85%
    08:00 +27°C° 0 mm 1 mps 724 mmHg 80%
    09:00 +29°C° 0 mm 2 mps 724 mmHg 72%
    10:00 +31°C° 0 mm 2 mps 723 mmHg 63%
    11:00 +34°C° 0 mm 2 mps 723 mmHg 54%
    12:00 +34°C° 0 mm 2 mps 723 mmHg 52%
    13:00 +34°C° 0 mm 1 mps 722 mmHg 49%
    14:00 +35°C° 0 mm 1 mps 721 mmHg 46%
    15:00 +34°C° 0 mm 1 mps 721 mmHg 51%
    16:00 +34°C° 0 mm 1 mps 720 mmHg 55%
    17:00 +33°C° 0 mm 1 mps 720 mmHg 59%
    18:00 +31°C° 0 mm 1 mps 720 mmHg 65%
    19:00 +29°C° 0 mm 1 mps 721 mmHg 71%
    20:00 +28°C° 0 mm 1 mps 721 mmHg 76%
    21:00 +27°C° 0.1 mm 1 mps 721 mmHg 78%
    22:00 +27°C° 0.1 mm 1 mps 721 mmHg 81%
    23:00 +26°C° 0.1 mm 1 mps 721 mmHg 83%

    22 June, Saturday

    Time Temperature Precipitation Wind Pressure Humidity
    00:00 +26°C° 0.1 mm 1 mps 721 mmHg 84%
    01:00 +26°C° 0.1 mm 1 mps 721 mmHg 85%
    02:00 +25°C° 0.1 mm 1 mps 720 mmHg 87%
    03:00 +24°C° 1.2 mm 1 mps 721 mmHg 90%
    04:00 +24°C° 1.2 mm 1 mps 721 mmHg 92%
    05:00 +24°C° 1.2 mm 1 mps 721 mmHg 95%
    06:00 +24°C° 0.1 mm 1 mps 722 mmHg 92%
    07:00 +25°C° 0.1 mm 2 mps 722 mmHg 88%
    08:00 +26°C° 0.1 mm 2 mps 723 mmHg 85%
    09:00 +28°C° 0 mm 2 mps 723 mmHg 76%
    10:00 +30°C° 0 mm 2 mps 723 mmHg 67%
    11:00 +32°C° 0 mm 2 mps 723 mmHg 58%
    12:00 +32°C° 0.5 mm 2 mps 722 mmHg 58%
    13:00 +32°C° 0.5 mm 2 mps 721 mmHg 59%
    14:00 +32°C° 0.5 mm 2 mps 720 mmHg 59%
    15:00 +30°C° 0.7 mm 2 mps 720 mmHg 68%
    16:00 +28°C° 0.7 mm 3 mps 720 mmHg 76%
    17:00 +26°C° 0.7 mm 3 mps 720 mmHg 85%
    18:00 +26°C° 0 mm 3 mps 720 mmHg 86%
    19:00 +25°C° 0 mm 2 mps 720 mmHg 88%
    20:00 +25°C° 0 mm 1 mps 721 mmHg 89%
    21:00 +24°C° 0 mm 1 mps 721 mmHg 90%
    22:00 +24°C° 0 mm 1 mps 721 mmHg 91%
    23:00 +23°C° 0 mm 1 mps 721 mmHg 92%

    23 June, Sunday

    Time Temperature Precipitation Wind Pressure Humidity
    00:00 +23°C° 0 mm 1 mps 721 mmHg 92%
    01:00 +23°C° 0 mm 1 mps 721 mmHg 91%
    02:00 +23°C° 0 mm 1 mps 721 mmHg 90%
    03:00 +23°C° 0 mm 1 mps 721 mmHg 91%
    04:00 +23°C° 0 mm 1 mps 721 mmHg 92%
    05:00 +23°C° 0 mm 1 mps 721 mmHg 93%
    06:00 +24°C° 0 mm 2 mps 722 mmHg 89%
    07:00 +25°C° 0 mm 2 mps 722 mmHg 85%
    08:00 +26°C° 0 mm 2 mps 723 mmHg 81%
    09:00 +27°C° 0 mm 2 mps 723 mmHg 75%
    10:00 +28°C° 0 mm 2 mps 723 mmHg 69%
    11:00 +30°C° 0 mm 3 mps 723 mmHg 62%
    12:00 +31°C° 0 mm 3 mps 722 mmHg 60%
    13:00 +31°C° 0 mm 3 mps 722 mmHg 57%
    14:00 +33°C° 0 mm 3 mps 721 mmHg 55%
    15:00 +31°C° 1.2 mm 3 mps 721 mmHg 64%
    16:00 +29°C° 1.2 mm 2 mps 721 mmHg 73%
    17:00 +28°C° 1.2 mm 1 mps 720 mmHg 82%
    18:00 +27°C° 0.2 mm 1 mps 721 mmHg 84%
    19:00 +26°C° 0.2 mm 1 mps 721 mmHg 86%
    20:00 +24°C° 0.2 mm 0 mps 721 mmHg 88%
    21:00 +25°C° 0 mm 1 mps 721 mmHg 89%
    22:00 +25°C° 0 mm 1 mps 721 mmHg 89%
    23:00 +25°C° 0 mm 1 mps 721 mmHg 90%

    24 June, Monday

    Time Temperature Precipitation Wind Pressure Humidity
    00:00 +25°C° 0 mm 1 mps 721 mmHg 91%
    01:00 +24°C° 0 mm 1 mps 721 mmHg 91%
    02:00 +22°C° 0 mm 0 mps 720 mmHg 92%
    03:00 +22°C° 0 mm 0 mps 721 mmHg 91%
    04:00 +22°C° 0 mm 0 mps 721 mmHg 91%
    05:00 +22°C° 0 mm 0 mps 721 mmHg 91%
    06:00 +22°C° 0 mm 0 mps 722 mmHg 90%
    07:00 +23°C° 0 mm 0 mps 723 mmHg 89%
    08:00 +23°C° 0 mm 0 mps 723 mmHg 88%
    09:00 +24°C° 0 mm 0 mps 723 mmHg 84%
    10:00 +25°C° 0 mm 0 mps 723 mmHg 79%
    11:00 +26°C° 0 mm 0 mps 723 mmHg 75%
    12:00 +28°C° 0.1 mm 1 mps 722 mmHg 73%
    13:00 +29°C° 0.1 mm 1 mps 722 mmHg 70%
    14:00 +30°C° 0.1 mm 1 mps 721 mmHg 67%
    15:00 +30°C° 0 mm 1 mps 721 mmHg 68%
    16:00 +29°C° 0 mm 1 mps 721 mmHg 69%
    17:00 +29°C° 0 mm 1 mps 720 mmHg 70%
    18:00 +28°C° 0 mm 1 mps 721 mmHg 74%
    19:00 +27°C° 0 mm 1 mps 721 mmHg 78%
    20:00 +26°C° 0 mm 1 mps 721 mmHg 82%
    21:00 +25°C° 0 mm 1 mps 721 mmHg 83%
    22:00 +25°C° 0 mm 1 mps 721 mmHg 84%
    23:00 +25°C° 0 mm 1 mps 721 mmHg 85%
    Show more